This is the latest recevied weather packets stored in our database for station/object VA7NEZ. If no packets are shown the sender has not sent any weather packets the latest 10 day(s).
| Time | Temp. | Humidity | Pressure | Rain* | Wind** | Luminosity | Snow |
|---|---|---|---|---|---|---|---|
| 1778318006 | 11.11° C | 49% | 1019.3 hPa | 0 mm | - | - | - |
| 1778317501 | 11.67° C | 47% | 1019.2 hPa | 0 mm | - | - | - |
| 1778316998 | 11.67° C | 47% | 1019.1 hPa | 0 mm | - | - | - |
| 1778316416 | 11.67° C | 47% | 1019 hPa | 0 mm | - | - | - |
| 1778315856 | 11.67° C | 48% | 1018.9 hPa | 0 mm | - | - | - |
| 1778315276 | 11.67° C | 47% | 1018.9 hPa | 0 mm | - | - | - |
| 1778314762 | 12.22° C | 46% | 1018.9 hPa | 0 mm | - | - | - |
| 1778314226 | 11.67° C | 46% | 1018.8 hPa | 0 mm | - | - | - |
| 1778313626 | 11.67° C | 45% | 1018.8 hPa | 0 mm | - | - | - |
| 1778313062 | 11.67° C | 46% | 1018.7 hPa | 0 mm | - | - | - |
| 1778312546 | 12.22° C | 46% | 1018.6 hPa | 0 mm | - | - | - |
| 1778312066 | 12.22° C | 47% | 1018.5 hPa | 0 mm | - | - | - |
| 1778310981 | 12.78° C | 46% | 1018.4 hPa | 0 mm | - | - | - |
| 1778310450 | 13.33° C | 46% | 1018.4 hPa | 0 mm | - | - | - |
| 1778309896 | 13.33° C | 45% | 1018.3 hPa | 0 mm | - | - | - |
| 1778308811 | 13.33° C | 48% | 1018.1 hPa | 0 mm | - | - | - |
| 1778308227 | 13.89° C | 40% | 1018 hPa | 0 mm | - | - | - |
| 1778307731 | 13.89° C | 41% | 1018 hPa | 0 mm | - | - | - |
| 1778307171 | 13.89° C | 40% | 1017.9 hPa | 0 mm | - | - | - |
| 1778306641 | 13.33° C | 46% | 1017.8 hPa | 0 mm | - | - | - |
| 1778306066 | 13.89° C | 47% | 1017.7 hPa | 0 mm | - | - | - |
| 1778305581 | 14.44° C | 42% | 1017.7 hPa | 0 mm | - | - | - |
| 1778305072 | 14.44° C | 36% | 1017.6 hPa | 0 mm | - | - | - |
| 1778304481 | 15° C | 36% | 1017.7 hPa | 0 mm | - | - | - |
| 1778303911 | 14.44° C | 37% | 1017.4 hPa | 0 mm | - | - | - |
* Rain latest hour (hover to see other rain measurements)
** Current wind speed in m/s (hover to see current wind gust speed)